1484942400.02,14559,7.94,74188.8,-8.03,-10.15,-10.01,0,*52
1484942401.25,14560,8.0,74188.3,-8.03,-10.09,-10.01,0,*55
1484942402.45,14561,7.94,74188.8,-8.05,-9.97,-9.89,0,*55
1484942403.66,14562,7.94,74190.5,-8.03,-9.97,-9.89,0,*50
1484942404.88,14563,8.0,74188.0,-8.03,-9.97,-9.97,0,*5E
1484942406.12,14564,8.0,74190.0,-8.03,-10.01,-10.01,0,*59
1484942407.36,14565,7.94,74186.8,-8.03,-10.09,-10.01,0,*50
1484942408.56,14566,7.94,74188.5,-8.01,-10.09,-10.05,0,*55
1484942409.77,14567,8.0,74192.3,-8.01,-10.19,-10.09,0,*59
1484942411.0,14568,8.0,74188.8,-7.99,-10.09,-10.05,0,*55
1484942412.22,14569,7.94,74188.0,-8.01,-10.19,-10.09,0,*57
1484942413.45,14570,8.0,74190.5,-8.03,-10.27,-10.23,0,*58
1484942414.69,14571,7.94,74190.5,-8.03,-10.27,-10.23,0,*59
1484942415.93,14572,8.0,74192.3,-8.03,-10.35,-10.23,0,*59
1484942417.18,14573,8.0,74188.8,-8.03,-10.35,-10.35,0,*5F
1484942418.4,14574,8.0,74190.8,-8.01,-10.31,-10.35,0,*5E
1484942419.64,14575,8.0,74190.8,-8.03,-10.35,-10.27,0,*5A
1484942420.88,14576,7.94,74188.3,-8.05,-10.41,-10.23,0,*58
1484942422.12,14577,7.94,74188.0,-8.03,-10.35,-10.27,0,*58
1484942423.37,14578,7.94,74190.8,-8.03,-10.35,-10.27,0,*57
1484942424.61,14579,8.0,74192.8,-8.03,-10.27,-10.27,0,*55
1484942425.86,14580,7.94,74188.8,-8.03,-10.35,-10.35,0,*53
1484942427.1,14581,7.94,74188.0,-8.03,-10.27,-10.15,0,*53
1484942428.31,14582,7.94,74190.3,-8.05,-10.35,-10.23,0,*50
1484942429.52,14583,8.0,74190.3,-8.05,-10.27,-10.23,0,*52
1484942430.76,14584,8.0,74190.3,-8.03,-10.35,-10.23,0,*50
1484942431.97,14585,8.0,74188.8,-8.05,-10.27,-10.23,0,*54
1484942433.24,14586,7.94,74188.8,-8.03,-10.41,-10.27,0,*55
1484942434.5,14587,8.0,74190.8,-8.05,-10.41,-10.41,0,*52
1484942435.76,14588,8.0,74192.3,-8.03,-10.53,-10.41,0,*58
1484942436.97,14589,8.0,74190.5,-8.05,-10.53,-10.49,0,*57
1484942438.17,14590,8.0,74192.8,-8.05,-10.53,-10.49,0,*5F
1484942439.38,14591,7.94,74190.8,-8.05,-10.53,-10.49,0,*5E
1484942440.65,14592,8.0,74192.0,-8.05,-10.41,-10.41,0,*56
1484942441.89,14593,7.94,74190.8,-8.05,-10.41,-10.35,0,*54
1484942443.13,14594,8.0,74190.8,-8.05,-10.41,-10.27,0,*50
1484942444.37,14595,7.94,74190.0,-8.05,-10.41,-10.27,0,*51
1484942445.59,14596,8.0,74190.0,-8.05,-10.35,-10.35,0,*52
1484942446.8,14597,8.0,74194.3,-8.05,-10.27,-10.23,0,*57
1484942448.02,14598,7.94,74190.5,-8.05,-10.27,-10.27,0,*5C
1484942449.25,14599,7.94,74190.3,-8.05,-10.41,-10.23,0,*59
1484942450.46,14600,7.94,74188.5,-8.05,-10.27,-10.23,0,*5A
1484942451.68,14601,8.0,74192.3,-8.05,-10.27,-10.35,0,*5C
1484942452.95,14602,7.94,74188.5,-8.03,-10.41,-10.35,0,*59
1484942454.24,14603,7.94,74188.0,-8.07,-10.41,-10.41,0,*5F
1484942455.51,14604,7.94,74190.3,-8.07,-10.41,-10.35,0,*5B
1484942456.77,14605,7.94,74192.0,-8.07,-10.53,-10.41,0,*5A
1484942458.03,14606,8.0,74194.0,-8.07,-10.53,-10.41,0,*59
1484942459.27,14607,8.0,74194.3,-8.07,-10.49,-10.45,0,*57
1484942460.51,14608,7.94,74190.3,-8.07,-10.27,-10.27,0,*54
1484942461.74,14609,8.0,74194.3,-8.07,-10.23,-10.23,0,*55
1484942462.98,14610,8.0,74192.5,-8.11,-10.31,-10.31,0,*5A
1484942464.2,14611,7.94,74188.8,-8.05,-10.27,-10.27,0,*5E
1484942465.44,14612,8.0,74190.3,-8.07,-10.35,-10.27,0,*5C
1484942466.69,14613,8.0,74192.8,-8.07,-10.35,-10.27,0,*5D
1484942467.96,14614,8.0,74192.0,-8.11,-10.41,-10.31,0,*59
1484942469.25,14615,8.0,74190.5,-8.11,-10.41,-10.41,0,*5F
1484942470.48,14616,7.94,74190.8,-8.11,-10.53,-10.45,0,*5B
1484942471.74,14617,7.94,74190.3,-8.11,-10.41,-10.45,0,*59
1484942473.0,14618,7.94,74190.3,-8.11,-10.53,-10.41,0,*51
1484942474.24,14619,7.94,74184.3,-8.07,-10.49,-10.35,0,*5F
1484942475.48,14620,7.94,74188.8,-8.07,-10.49,-10.49,0,*5E
1484942476.71,14621,8.0,74192.5,-8.07,-10.53,-10.49,0,*54
1484942477.95,14622,8.0,74192.0,-8.11,-10.57,-10.53,0,*5F
1484942479.21,14623,7.94,74190.3,-8.11,-10.45,-10.41,0,*5E
1484942480.48,14624,7.94,74188.0,-8.11,-10.45,-10.41,0,*59
1484942481.74,14625,7.94,74186.8,-8.11,-10.45,-10.41,0,*58
1484942482.97,14626,7.94,74186.3,-8.11,-10.53,-10.53,0,*5F
1484942484.21,14627,7.94,74190.3,-8.11,-10.57,-10.53,0,*5A
1484942485.44,14628,7.94,74188.3,-8.11,-10.53,-10.57,0,*55
1484942486.67,14629,7.94,74190.0,-8.11,-10.45,-10.45,0,*50
1484942487.94,14630,7.94,74188.8,-8.11,-10.45,-10.41,0,*5C
1484942489.2,14631,7.94,74188.8,-8.11,-10.41,-10.31,0,*5E
1484942490.47,14632,7.94,74190.3,-8.11,-10.41,-10.31,0,*5D
1484942491.74,14633,7.94,74190.0,-8.11,-10.41,-10.27,0,*5B
1484942492.98,14634,7.94,74190.3,-8.11,-10.19,-10.19,0,*5C
1484942494.23,14635,8.0,74190.0,-8.11,-10.19,-10.19,0,*5D
1484942495.47,14636,7.94,74190.8,-8.11,-10.31,-10.19,0,*54
1484942496.71,14637,7.94,74184.8,-8.11,-10.45,-10.31,0,*5C
1484942497.94,14638,7.94,74190.5,-8.11,-10.45,-10.45,0,*50
1484942499.17,14639,7.94,74190.3,-8.07,-10.53,-10.45,0,*51
1484942500.41,14640,7.94,74186.8,-8.13,-10.63,-10.57,0,*5A
1484942501.65,14641,7.94,74190.5,-8.13,-10.57,-10.63,0,*5B
1484942502.89,14642,8.0,74192.5,-8.13,-10.63,-10.57,0,*58
1484942504.1,14643,7.94,74188.3,-8.13,-10.57,-10.57,0,*5E
1484942505.31,14644,7.94,74188.8,-8.13,-10.57,-10.57,0,*59
1484942506.54,14645,7.94,74190.5,-8.11,-10.53,-10.53,0,*5A
1484942507.78,14646,7.94,74190.5,-8.13,-10.57,-10.63,0,*5C
1484942509.05,14647,7.94,74188.3,-8.15,-10.63,-10.49,0,*54
1484942510.32,14648,8.0,74190.3,-8.15,-10.63,-10.57,0,*54
1484942511.53,14649,7.94,74190.5,-8.13,-10.57,-10.45,0,*57
1484942512.74,14650,7.94,74188.8,-8.13,-10.45,-10.49,0,*50
1484942513.95,14651,8.0,74190.8,-8.13,-10.45,-10.45,0,*5D
1484942515.16,14652,8.0,74192.8,-8.13,-10.45,-10.31,0,*5D
1484942516.38,14653,7.94,74190.8,-8.13,-10.35,-10.19,0,*51
1484942517.63,14654,8.0,74192.0,-8.15,-10.35,-10.35,0,*5E
1484942518.84,14655,7.94,74190.8,-8.13,-10.45,-10.35,0,*5E
1484942520.05,14656,7.94,74192.3,-8.13,-10.45,-10.31,0,*59
1484942521.3,14657,7.94,74188.8,-8.15,-10.45,-10.35,0,*5A
1484942522.54,14658,8.0,74192.0,-8.15,-10.45,-10.35,0,*55
1484942523.78,14659,8.0,74192.0,-8.15,-10.49,-10.45,0,*5F
1484942525.02,14660,7.94,74188.8,-8.15,-10.49,-10.45,0,*55
1484942526.29,14661,7.94,74188.5,-8.15,-10.63,-10.57,0,*5F
1484942527.52,14662,7.94,74188.0,-8.17,-10.63,-10.53,0,*5A
1484942528.77,14663,7.94,74188.8,-8.15,-10.57,-10.49,0,*55
1484942530.01,14664,7.94,74190.3,-8.15,-10.57,-10.49,0,*52
1484942531.25,14665,8.0,74190.8,-8.15,-10.49,-10.45,0,*50
1484942532.49,14666,7.94,74190.0,-8.15,-10.49,-10.35,0,*54
1484942533.71,14667,7.94,74188.5,-8.13,-10.35,-10.31,0,*5C
1484942534.95,14668,7.94,74188.3,-8.17,-10.41,-10.35,0,*50
1484942536.19,14669,7.94,74190.0,-8.17,-10.49,-10.41,0,*5A
1484942537.43,14670,8.0,74192.5,-8.15,-10.57,-10.49,0,*57
1484942538.72,14671,7.94,74192.0,-8.15,-10.63,-10.63,0,*59
1484942539.96,14672,7.94,74190.0,-8.15,-10.49,-10.49,0,*5A
1484942541.2,14673,7.94,74190.8,-8.15,-10.49,-10.45,0,*57
1484942542.44,14674,8.0,74192.8,-8.13,-10.63,-10.49,0,*52
1484942543.71,14675,7.94,74188.8,-8.15,-10.63,-10.49,0,*55
1484942544.98,14676,8.0,74190.5,-8.15,-10.63,-10.49,0,*56
1484942546.22,14677,8.0,74192.8,-8.17,-10.67,-10.53,0,*5A
1484942547.49,14678,7.94,74190.3,-8.17,-10.63,-10.63,0,*52
1484942548.72,14679,7.94,74190.8,-8.17,-10.63,-10.49,0,*5B
1484942549.93,14680,7.94,74190.5,-8.17,-10.49,-10.49,0,*55
1484942551.17,14681,7.94,74184.3,-8.17,-10.49,-10.41,0,*5C
1484942552.44,14682,7.94,74188.5,-8.17,-10.41,-10.41,0,*57
1484942553.68,14683,8.0,74190.0,-8.17,-10.41,-10.35,0,*55
1484942554.92,14684,7.94,74188.8,-8.15,-10.31,-10.31,0,*53
1484942556.16,14685,7.94,74188.3,-8.17,-10.49,-10.41,0,*58
1484942557.36,14686,7.94,74190.0,-8.17,-10.53,-10.53,0,*53
1484942558.57,14687,8.0,74188.8,-8.17,-10.53,-10.53,0,*52
1484942559.81,14688,8.0,74190.8,-8.17,-10.63,-10.53,0,*5E
1484942561.04,14689,7.94,74188.3,-8.17,-10.63,-10.49,0,*54
1484942562.28,14690,7.94,74190.3,-8.17,-10.63,-10.53,0,*57
1484942563.52,14691,7.94,74188.0,-8.19,-10.49,-10.49,0,*5B
1484942564.75,14692,7.94,74190.8,-8.17,-10.63,-10.53,0,*55
1484942565.99,14693,7.94,74188.3,-8.15,-10.57,-10.57,0,*55
1484942567.26,14694,7.94,74190.3,-8.17,-10.67,-10.63,0,*54
1484942568.56,14695,8.0,74192.3,-8.19,-10.67,-10.63,0,*5B
1484942569.83,14696,7.94,74186.8,-8.17,-10.67,-10.63,0,*56
1484942571.12,14697,7.94,74188.5,-8.19,-10.67,-10.67,0,*5D
1484942572.39,14698,7.94,74188.5,-8.17,-10.67,-10.67,0,*5C
1484942573.68,14699,7.94,74186.8,-8.19,-10.63,-10.67,0,*57
1484942574.98,14700,8.0,74192.3,-8.19,-10.67,-10.63,0,*56
1484942576.24,14701,8.0,74194.3,-8.17,-10.63,-10.63,0,*5D
1484942577.47,14702,7.94,74192.5,-8.17,-10.53,-10.63,0,*5D
1484942578.77,14703,7.94,74190.0,-8.19,-10.67,-10.63,0,*55
1484942580.06,14704,7.94,74192.3,-8.19,-10.67,-10.63,0,*52
1484942581.27,14705,7.94,74188.8,-8.17,-10.49,-10.49,0,*59
1484942582.53,14706,7.94,74190.0,-8.19,-10.53,-10.41,0,*57
1484942583.76,14707,7.94,74188.0,-8.19,-10.49,-10.53,0,*5E
1484942585.0,14708,7.94,74190.0,-8.17,-10.49,-10.41,0,*5C
1484942586.23,14709,7.94,74188.0,-8.19,-10.49,-10.49,0,*5B
1484942587.49,14710,7.94,74184.5,-8.19,-10.49,-10.41,0,*5B
1484942588.73,14711,7.94,74190.5,-8.21,-10.53,-10.41,0,*5A
1484942589.97,14712,8.0,74188.0,-8.17,-10.49,-10.41,0,*57
1484942591.18,14713,7.94,74188.3,-8.17,-10.49,-10.35,0,*55
1484942592.43,14714,8.0,74190.5,-8.19,-10.35,-10.35,0,*57
1484942593.67,14715,8.0,74184.5,-8.19,-10.35,-10.35,0,*56
1484942594.88,14716,7.94,74184.5,-8.17,-10.23,-10.15,0,*5E
1484942596.08,14717,7.94,74184.0,-8.17,-10.09,-10.09,0,*5A
1484942597.32,14718,7.94,74182.5,-8.19,-10.09,-10.01,0,*53
1484942598.54,14719,8.0,74184.0,-8.19,-10.09,-10.09,0,*5A
1484942599.74,14720,7.94,74184.3,-8.17,-10.09,-10.09,0,*5E
1484942600.97,14721,8.0,74184.0,-8.19,-10.09,-10.09,0,*51
1484942602.16,14722,7.94,74186.3,-8.17,-10.09,-9.97,0,*63
1484942603.36,14723,7.94,74186.0,-8.17,-10.01,-9.97,0,*6A
1484942604.56,14724,8.0,74190.3,-8.17,-9.97,-9.93,0,*5E
1484942605.78,14725,8.0,74186.5,-8.17,-9.97,-9.83,0,*5E
1484942607.0,14726,8.0,74190.5,-8.17,-9.97,-9.83,0,*5D
1484942608.23,14727,7.94,74184.3,-8.15,-9.79,-9.79,0,*5B
1484942609.46,14728,7.94,74184.8,-8.15,-9.79,-9.79,0,*54
1484942610.69,14729,7.94,74184.3,-8.15,-9.79,-9.79,0,*55
1484942611.89,14730,8.0,74190.8,-8.13,-9.79,-9.79,0,*5B
1484942613.08,14731,7.94,74184.3,-8.13,-9.89,-9.89,0,*5A
1484942614.27,14732,8.0,74188.0,-8.13,-9.97,-9.89,0,*56
1484942615.47,14733,8.0,74190.3,-8.13,-10.05,-9.93,0,*6F
1484942616.66,14734,7.94,74186.5,-8.13,-10.05,-9.97,0,*6C
1484942617.86,14735,7.94,74184.8,-8.13,-9.97,-9.93,0,*5A
1484942619.05,14736,7.94,74186.8,-8.13,-9.97,-9.97,0,*5D
1484942620.25,14737,7.94,74188.3,-8.13,-10.09,-9.97,0,*63
1484942621.45,14738,7.94,74188.3,-8.13,-10.09,-10.05,0,*5F
1484942622.65,14739,7.94,74188.0,-8.13,-10.05,-10.05,0,*52
1484942623.85,14740,8.0,74190.3,-8.13,-10.05,-10.05,0,*5C
1484942625.05,14741,7.94,74188.5,-8.13,-10.09,-10.09,0,*5D
1484942626.25,14742,7.94,74190.5,-8.13,-10.09,-10.05,0,*52
1484942627.46,14743,7.94,74190.0,-8.13,-10.09,-10.05,0,*53
1484942628.69,14744,7.94,74186.0,-8.11,-10.01,-10.05,0,*5E
1484942629.92,14745,7.94,74188.8,-8.11,-10.05,-10.01,0,*5F
1484942631.16,14746,7.94,74188.0,-8.11,-10.01,-10.01,0,*58
1484942632.39,14747,7.94,74188.8,-8.11,-10.01,-9.93,0,*6A
1484942633.63,14748,7.94,74186.8,-8.11,-10.19,-10.05,0,*5B
1484942634.87,14749,7.94,74188.0,-8.11,-10.15,-10.15,0,*57
1484942636.11,14750,7.94,74190.3,-8.07,-10.15,-10.09,0,*55
1484942637.35,14751,7.94,74188.8,-8.11,-10.31,-10.15,0,*58
1484942638.59,14752,8.0,74188.8,-8.11,-10.31,-10.31,0,*5D
1484942639.85,14753,7.94,74190.5,-8.11,-10.45,-10.41,0,*58
1484942641.12,14754,8.0,74188.5,-8.11,-10.45,-10.41,0,*5F
1484942642.32,14755,7.94,74188.8,-8.13,-10.53,-10.45,0,*5F
1484942643.54,14756,7.94,74188.8,-8.13,-10.45,-10.35,0,*5C
1484942644.78,14757,7.94,74188.3,-8.11,-10.31,-10.27,0,*5F
1484942645.99,14758,7.94,74190.3,-8.13,-10.31,-10.31,0,*55
1484942647.21,14759,7.94,74188.0,-8.13,-10.35,-10.35,0,*54
1484942648.43,14760,7.94,74188.8,-8.13,-10.35,-10.31,0,*5A
1484942649.64,14761,7.94,74188.5,-8.13,-10.49,-10.49,0,*5F
1484942650.86,14762,7.94,74186.8,-8.13,-10.35,-10.35,0,*5C
1484942652.07,14763,7.94,74188.5,-8.13,-10.23,-10.23,0,*5D
1484942653.29,14764,7.94,74188.8,-8.13,-10.19,-10.19,0,*5A
1484942654.52,14765,7.94,74184.5,-8.07,-10.09,-10.01,0,*56
1484942655.76,14766,7.94,74188.3,-8.11,-10.15,-10.05,0,*5B
1484942657.01,14767,8.0,74190.0,-8.07,-10.15,-10.01,0,*59
1484942658.22,14768,7.94,74190.0,-8.13,-10.31,-10.19,0,*5C
1484942659.44,14769,7.94,74190.5,-8.13,-10.31,-10.31,0,*57
1484942660.68,14770,7.94,74188.3,-8.11,-10.27,-10.19,0,*50
1484942661.92,14771,8.0,74190.5,-8.11,-10.15,-10.15,0,*5C
1484942663.13,14772,7.94,74190.8,-8.13,-10.09,-10.09,0,*5D
1484942664.34,14773,7.94,74192.3,-8.13,-10.19,-10.09,0,*5D
1484942665.55,14774,7.94,74190.5,-8.13,-10.23,-10.19,0,*52
1484942666.76,14775,8.0,74192.5,-8.13,-10.31,-10.23,0,*59
1484942668.03,14776,8.0,74192.5,-8.11,-10.41,-10.27,0,*5B
1484942669.27,14777,7.94,74190.5,-8.11,-10.27,-10.15,0,*5B
1484942670.52,14778,8.0,74190.5,-8.11,-10.15,-10.15,0,*55
1484942671.76,14779,7.94,74188.8,-8.07,-10.01,-10.01,0,*53
1484942672.99,14780,8.0,74192.3,-8.11,-10.15,-10.05,0,*53
1484942674.23,14781,7.94,74186.8,-8.11,-10.15,-10.05,0,*52
1484942675.47,14782,7.94,74190.0,-8.11,-10.15,-10.05,0,*51
1484942676.71,14783,7.94,74188.8,-8.11,-10.01,-10.01,0,*51
1484942677.95,14784,7.94,74188.8,-8.11,-10.15,-10.01,0,*53
1484942679.19,14785,7.94,74190.8,-8.11,-10.05,-10.01,0,*53
1484942680.41,14786,7.94,74192.5,-8.11,-10.05,-10.05,0,*54
1484942681.65,14787,8.0,74192.8,-8.11,-10.15,-10.05,0,*54
1484942682.89,14788,8.0,74194.5,-8.11,-10.19,-10.05,0,*57
1484942684.13,14789,7.94,74194.0,-8.11,-10.19,-10.15,0,*57
1484942685.38,14790,7.94,74194.8,-8.11,-10.19,-10.19,0,*53
1484942686.62,14791,7.94,74196.5,-8.11,-10.19,-10.15,0,*5E
1484942687.87,14792,8.0,74198.5,-8.11,-10.19,-10.15,0,*5D
1484942689.11,14793,7.94,74194.5,-8.11,-10.19,-10.15,0,*5C
1484942690.36,14794,7.94,74192.0,-8.11,-10.15,-10.15,0,*57
1484942691.6,14795,7.94,74194.0,-8.11,-10.19,-10.15,0,*5A
1484942692.84,14796,7.94,74192.3,-8.11,-10.15,-10.09,0,*58
1484942694.09,14797,8.0,74192.5,-8.11,-10.15,-10.01,0,*51
1484942695.31,14798,8.0,74198.0,-8.11,-10.05,-9.93,0,*6C
1484942696.54,14799,7.94,74192.5,-8.11,-10.01,-9.93,0,*69
1484942697.76,14800,8.0,74194.3,-8.07,-9.97,-9.89,0,*5D
1484942699.0,14801,7.94,74190.8,-8.07,-9.89,-9.83,0,*59
1484942700.24,14802,7.94,74188.5,-8.07,-9.83,-9.79,0,*55
1484942701.49,14803,7.94,74188.5,-8.11,-9.83,-9.75,0,*5F
1484942702.72,14804,7.94,74188.0,-8.07,-9.79,-9.71,0,*5E
1484942703.95,14805,8.0,74192.8,-8.07,-9.71,-9.71,0,*57
1484942705.18,14806,7.94,74188.3,-8.07,-9.71,-9.67,0,*53
1484942706.41,14807,7.94,74190.3,-8.07,-9.71,-9.67,0,*52
1484942707.65,14808,7.94,74188.0,-8.07,-9.83,-9.79,0,*5F
1484942708.87,14809,7.94,74190.3,-8.05,-9.89,-9.83,0,*53
1484942710.07,14810,8.0,74192.0,-8.05,-10.01,-9.89,0,*69
1484942711.29,14811,7.94,74190.0,-8.03,-10.01,-9.97,0,*61
1484942712.5,14812,7.94,74186.5,-8.05,-10.09,-10.01,0,*5B
1484942713.7,14813,7.94,74184.8,-8.05,-9.97,-10.01,0,*65
1484942714.91,14814,7.94,74186.0,-8.05,-10.09,-10.01,0,*5D
1484942716.13,14815,8.0,74184.3,-8.05,-10.15,-10.01,0,*51
1484942717.33,14816,8.0,74186.8,-8.05,-10.09,-10.09,0,*57
1484942718.54,14817,7.94,74184.3,-8.05,-10.09,-10.15,0,*5B
1484942719.78,14818,8.0,74186.5,-8.03,-10.27,-10.27,0,*5F
1484942720.99,14819,7.94,74184.3,-8.05,-10.27,-10.23,0,*5C
1484942722.2,14820,8.0,74184.8,-8.05,-10.23,-10.09,0,*5A
1484942723.43,14821,8.0,74186.0,-8.03,-10.09,-10.01,0,*5D
1484942724.63,14822,7.94,74182.3,-8.05,-10.01,-9.97,0,*67
1484942725.85,14823,7.94,74176.5,-8.03,-9.97,-9.97,0,*57
1484942727.07,14824,8.0,74180.0,-8.05,-9.97,-9.83,0,*53
1484942728.3,14825,8.0,74182.8,-8.03,-9.71,-9.71,0,*51
1484942729.5,14826,7.94,74182.5,-8.05,-9.71,-9.71,0,*54
1484942730.74,14827,7.94,74182.5,-8.05,-9.57,-9.57,0,*55
1484942731.96,14828,7.94,74180.0,-8.05,-9.41,-9.31,0,*5D
1484942733.23,14829,7.94,74180.3,-8.03,-9.45,-9.41,0,*59
1484942734.51,14830,7.94,74182.5,-8.03,-9.53,-9.45,0,*52
1484942735.76,14831,7.94,74184.8,-8.03,-9.67,-9.53,0,*53
1484942737.01,14832,7.94,74182.8,-8.01,-9.61,-9.53,0,*54
1484942738.28,14833,8.0,74184.3,-7.99,-9.53,-9.53,0,*5A
1484942739.53,14834,8.0,74186.5,-8.01,-9.53,-9.49,0,*58
1484942740.81,14835,7.94,74182.3,-7.99,-9.61,-9.53,0,*5D
1484942742.08,14836,7.94,74182.5,-7.99,-9.53,-9.49,0,*54
1484942743.36,14837,7.94,74180.5,-7.99,-9.61,-9.53,0,*5F
1484942744.61,14838,8.0,74182.8,-7.99,-9.67,-9.61,0,*57
1484942745.83,14839,7.94,74180.3,-7.99,-9.67,-9.67,0,*50
1484942747.08,14840,7.94,74182.8,-7.99,-9.67,-9.61,0,*58
1484942748.31,14841,7.94,74182.5,-7.97,-9.71,-9.57,0,*55
1484942749.55,14842,7.94,74178.0,-7.95,-9.67,-9.57,0,*53
1484942750.79,14843,7.94,74180.0,-7.97,-9.61,-9.57,0,*56
1484942752.03,14844,7.94,74178.5,-7.97,-9.57,-9.49,0,*5B
1484942753.28,14845,7.94,74176.5,-7.97,-9.49,-9.45,0,*59
1484942754.55,14846,7.94,74178.5,-7.95,-9.45,-9.41,0,*50
1484942755.8,14847,8.0,74182.8,-7.95,-9.41,-9.27,0,*55
1484942757.04,14848,8.0,74180.0,-7.95,-9.41,-9.31,0,*5D
1484942758.29,14849,7.94,74176.5,-7.97,-9.49,-9.49,0,*59
1484942759.56,14850,7.94,74176.3,-7.95,-9.53,-9.45,0,*54
1484942760.83,14851,7.94,74174.3,-7.95,-9.53,-9.53,0,*52
1484942762.07,14852,8.0,74180.0,-7.95,-9.67,-9.57,0,*52
1484942763.33,14853,7.94,74180.5,-7.95,-9.57,-9.57,0,*50
1484942764.59,14854,7.94,74180.0,-7.95,-9.57,-9.53,0,*53
1484942765.81,14855,7.94,74178.8,-7.93,-9.67,-9.53,0,*57
1484942767.05,14856,7.94,74178.5,-7.93,-9.57,-9.53,0,*57
1484942768.27,14857,7.94,74176.3,-7.93,-9.67,-9.53,0,*55
1484942769.47,14858,7.94,74178.0,-7.93,-9.75,-9.75,0,*5D
1484942770.67,14859,7.94,74176.3,-7.93,-9.71,-9.67,0,*5B
1484942771.86,14860,8.0,74182.0,-7.93,-9.75,-9.67,0,*55
1484942773.06,14861,7.94,74178.0,-7.93,-9.71,-9.71,0,*57
1484942774.29,14862,7.94,74180.5,-7.91,-9.71,-9.67,0,*51
1484942775.49,14863,7.94,74176.3,-7.93,-9.67,-9.67,0,*55
1484942776.68,14864,7.94,74178.8,-7.93,-9.75,-9.71,0,*56
1484942777.9,14865,8.0,74178.5,-7.93,-9.71,-9.57,0,*57
1484942779.17,14866,8.0,74182.3,-7.91,-9.53,-9.49,0,*59
1484942780.45,14867,7.94,74178.3,-7.91,-9.61,-9.53,0,*52
1484942781.64,14868,8.0,74184.8,-7.93,-9.75,-9.71,0,*5A
1484942782.89,14869,7.94,74180.8,-7.91,-9.67,-9.53,0,*5A
1484942784.17,14870,7.94,74180.8,-7.91,-9.61,-9.53,0,*54
1484942785.42,14871,7.94,74180.5,-7.91,-9.67,-9.53,0,*53
1484942786.67,14872,8.0,74186.8,-7.91,-9.71,-9.61,0,*56
1484942787.89,14873,8.0,74182.8,-7.91,-9.79,-9.67,0,*59
1484942789.14,14874,7.94,74178.0,-7.91,-9.83,-9.79,0,*54
1484942790.41,14875,7.94,74184.5,-7.91,-9.83,-9.83,0,*50
1484942791.63,14876,8.0,74188.5,-7.91,-9.79,-9.71,0,*5B
1484942792.86,14877,7.94,74186.0,-7.91,-9.71,-9.67,0,*55
1484942794.09,14878,8.0,74186.3,-7.91,-9.67,-9.67,0,*5D
1484942795.32,14879,7.94,74184.8,-7.91,-9.79,-9.71,0,*54
1484942796.56,14880,7.94,74184.0,-7.91,-9.83,-9.71,0,*57
1484942797.79,14881,7.94,74180.8,-7.91,-9.79,-9.71,0,*53
1484942799.04,14882,7.94,74182.8,-7.91,-9.67,-9.53,0,*5F
1484942800.31,14883,8.0,74182.8,-7.91,-9.53,-9.53,0,*59
1484942801.53,14884,8.0,74180.3,-7.93,-9.67,-9.53,0,*5B
1484942802.76,14885,7.94,74176.8,-7.91,-9.79,-9.71,0,*57
1484942804.0,14886,7.94,74180.5,-7.91,-9.83,-9.79,0,*59
1484942805.22,14887,8.0,74182.8,-7.91,-9.93,-9.79,0,*59
1484942806.45,14888,8.0,74180.8,-7.89,-9.67,-9.53,0,*5C
1484942807.72,14889,7.94,74180.3,-7.91,-9.61,-9.61,0,*53
1484942808.96,14890,7.94,74182.0,-7.89,-9.61,-9.61,0,*52
1484942810.21,14891,7.94,74182.8,-7.89,-9.61,-9.53,0,*52
1484942811.45,14892,8.0,74176.8,-7.89,-9.61,-9.53,0,*51
1484942812.7,14893,8.0,74182.3,-7.89,-9.53,-9.53,0,*51
1484942813.94,14894,8.0,74180.5,-7.89,-9.53,-9.61,0,*57
1484942815.18,14895,8.0,74182.8,-7.89,-9.61,-9.61,0,*57
1484942816.43,14896,8.0,74182.0,-7.89,-9.53,-9.53,0,*54
1484942817.67,14897,7.94,74180.5,-7.89,-9.53,-9.41,0,*56
1484942818.95,14898,8.0,74184.5,-7.85,-9.45,-9.37,0,*53
1484942820.23,14899,8.0,74184.5,-7.85,-9.45,-9.45,0,*57
1484942821.5,14900,8.0,74182.8,-7.85,-9.49,-9.49,0,*56
1484942822.75,14901,7.94,74182.3,-7.89,-9.61,-9.53,0,*5A
1484942824.01,14902,7.94,74184.5,-7.85,-9.57,-9.57,0,*54
1484942825.26,14903,8.0,74184.3,-7.85,-9.67,-9.49,0,*59
1484942826.51,14904,7.94,74182.8,-7.85,-9.67,-9.57,0,*51
1484942827.76,14905,7.94,74186.3,-7.85,-9.67,-9.49,0,*5F
1484942829.0,14906,7.94,74180.3,-7.85,-9.67,-9.61,0,*56
1484942830.23,14907,7.94,74180.3,-7.85,-9.67,-9.67,0,*51
1484942831.48,14908,7.94,74182.5,-7.85,-9.67,-9.61,0,*58
1484942832.71,14909,8.0,74184.0,-7.83,-9.75,-9.61,0,*5C
1484942833.94,14910,8.0,74184.0,-7.83,-9.75,-9.61,0,*54
1484942835.17,14911,8.0,74180.5,-7.83,-9.67,-9.61,0,*56
1484942836.39,14912,8.0,74180.5,-7.83,-9.67,-9.57,0,*50
1484942837.62,14913,8.0,74182.0,-7.83,-9.67,-9.61,0,*54
1484942838.83,14914,8.0,74184.0,-7.83,-9.75,-9.67,0,*56
1484942840.04,14915,7.94,74178.8,-7.83,-9.79,-9.67,0,*5B
1484942841.24,14916,7.94,74182.3,-7.83,-9.79,-9.67,0,*58
1484942842.45,14917,7.94,74180.0,-7.83,-9.79,-9.79,0,*56
1484942843.65,14918,8.0,74180.3,-7.83,-9.89,-9.79,0,*56
1484942844.85,14919,8.0,74180.3,-7.83,-9.93,-9.93,0,*58
1484942846.05,14920,7.94,74176.0,-7.83,-9.89,-9.75,0,*51
1484942847.28,14921,8.0,74182.0,-7.83,-9.67,-9.61,0,*55
1484942848.51,14922,8.0,74180.0,-7.83,-9.67,-9.61,0,*56
1484942849.78,14923,8.0,74180.5,-7.81,-9.61,-9.53,0,*52
1484942851.01,14924,7.94,74180.8,-7.83,-9.67,-9.61,0,*50
1484942852.26,14925,7.94,74176.3,-7.83,-9.61,-9.57,0,*52
1484942853.49,14926,8.0,74182.8,-7.83,-9.67,-9.61,0,*52
1484942854.71,14927,8.0,74180.8,-7.83,-9.67,-9.57,0,*56
1484942855.94,14928,8.0,74182.3,-7.83,-9.75,-9.61,0,*5F
1484942857.15,14929,8.0,74182.3,-7.83,-9.79,-9.67,0,*54
1484942858.4,14930,7.94,74178.5,-7.81,-9.75,-9.57,0,*51
1484942859.65,14931,7.94,74184.3,-7.83,-9.49,-9.49,0,*52
1484942860.91,14932,7.94,74184.8,-7.83,-9.45,-9.37,0,*54
1484942862.17,14933,8.0,74184.0,-7.81,-9.41,-9.27,0,*52
1484942863.42,14934,8.0,74188.0,-7.83,-9.45,-9.45,0,*57
1484942864.7,14935,8.0,74182.5,-7.81,-9.57,-9.53,0,*50
1484942865.96,14936,7.94,74180.5,-7.81,-9.57,-9.57,0,*57
1484942867.19,14937,7.94,74178.3,-7.83,-9.67,-9.61,0,*52
1484942868.44,14938,7.94,74180.3,-7.81,-9.75,-9.61,0,*5C
1484942869.7,14939,7.94,74184.3,-7.81,-9.71,-9.53,0,*58
1484942870.97,14940,8.0,74184.0,-7.81,-9.57,-9.45,0,*55
1484942872.24,14941,7.94,74182.8,-7.81,-9.53,-9.41,0,*54
1484942873.51,14942,7.94,74182.5,-7.81,-9.53,-9.41,0,*57
1484942874.78,14943,8.0,74186.8,-7.81,-9.53,-9.45,0,*52
1484942876.03,14944,7.94,74186.3,-7.79,-9.53,-9.45,0,*52
1484942877.28,14945,7.94,74186.0,-7.79,-9.53,-9.45,0,*53
1484942878.52,14946,7.94,74180.0,-7.79,-9.61,-9.57,0,*52
1484942879.77,14947,8.0,74180.5,-7.79,-9.53,-9.53,0,*56
1484942881.04,14948,8.0,74180.3,-7.77,-9.49,-9.41,0,*5F
1484942882.25,14949,8.0,74184.5,-7.79,-9.45,-9.31,0,*5B
1484942883.53,14950,8.0,74186.3,-7.77,-9.37,-9.15,0,*5E
1484942884.76,14951,8.0,74184.5,-7.79,-9.27,-9.11,0,*54
1484942886.01,14952,7.94,74180.8,-7.77,-9.37,-9.27,0,*5D
1484942887.28,14953,7.94,74180.3,-7.77,-9.37,-9.37,0,*5D
1484942888.55,14954,8.0,74178.5,-7.77,-9.49,-9.49,0,*5A
1484942889.82,14955,8.0,74178.5,-7.77,-9.53,-9.49,0,*50
1484942891.09,14956,8.0,74182.0,-7.77,-9.53,-9.41,0,*5B
1484942892.36,14957,7.94,74180.8,-7.77,-9.41,-9.41,0,*59
1484942893.64,14958,7.94,74180.5,-7.77,-9.41,-9.37,0,*57
1484942894.92,14959,8.0,74182.0,-7.77,-9.41,-9.37,0,*56
1484942896.2,14960,7.94,74180.8,-7.77,-9.41,-9.37,0,*5C
1484942897.45,14961,8.0,74182.5,-7.77,-9.41,-9.27,0,*5C
1484942898.71,14962,8.0,74180.5,-7.75,-9.37,-9.37,0,*5D
1484942899.95,14963,8.0,74182.8,-7.73,-9.37,-9.31,0,*5C
1484942901.21,14964,8.0,74186.0,-7.75,-9.41,-9.37,0,*5A
1484942902.43,14965,7.94,74182.0,-7.75,-9.37,-9.23,0,*5F
1484942903.68,14966,8.0,74180.8,-7.73,-9.37,-9.31,0,*59
1484942904.93,14967,7.94,74180.8,-7.75,-9.41,-9.41,0,*58
1484942906.18,14968,8.0,74184.5,-7.75,-9.41,-9.41,0,*57
1484942907.43,14969,7.94,74182.5,-7.73,-9.37,-9.31,0,*56
1484942908.67,14970,7.94,74182.8,-7.73,-9.37,-9.31,0,*5E
1484942909.91,14971,7.94,74182.5,-7.73,-9.45,-9.31,0,*5A
1484942911.19,14972,8.0,74182.8,-7.73,-9.45,-9.45,0,*5A
1484942912.46,14973,8.0,74186.0,-7.73,-9.61,-9.53,0,*5A
1484942913.71,14974,7.94,74176.8,-7.73,-9.67,-9.53,0,*5B